Бестобе

Казахстан     52˚29′59″N   73˚05′57″E
темп.,
°C
ветер,
м/с
пор.,
м/с
влажн.,
%
обл.,
%
осадки,
мм/ч
давл.,
гПа
погр.,
м
6 декабря, вс
вс623:00−22˚с129942 0.0 104520
02:00−22˚ссз1110029 0.0 104420
05:00−22˚ссз1110014 0.0 104420
08:00−22˚юз0010071 0.0 104420
11:00−19˚юз119675 0.0 104520
14:00−18˚юз129316 0.0 104320
17:00−20˚юз119531 0.0 104320
20:00−20˚ююз229150 0.0 104320
7 декабря, пн
пн723:00−20˚юз229129 0.0 104220
02:00−21˚юз339328 0.0 104020
05:00−20˚юз349355 0.0 103934
08:00−20˚юз459474 0.0 103853
11:00−17˚зюз459137 0.0 1038112
14:00−15˚юз46890 0.0 1036113
17:00−16˚юз55870 0.0 103679
20:00−16˚юз588359 0.0 1036119
8 декабря, вт
вт823:00−15˚зюз6108171 0.0 1035166
02:00−13˚зюз61180100 0.0 1034244
05:00−13˚зюз61182100 0.0 1033269
08:00−12˚зюз6119399 0.2 1033328
11:00−11˚зюз71193100 0.9 1032377
14:00−10˚з6109495 0.4 1032379
17:00−10˚зюз6109498 1.0 1031339
20:00−10˚зюз6995100 0.6 1031309
9 декабря, ср
ср923:00−9˚зюз5895100 1.4 1031303
02:00−9˚зюз5895100 0.8 1031280
05:00−9˚зюз5995100 1.7 1030315
08:00−9˚зюз6995100 1.7 1030360
11:00−9˚зюз599398 2.3 1030339
14:00−9˚зюз589290 0.1 1030251
17:00−9˚зюз589493 0.1 1031179
20:00−9˚зюз4795100 0.1 1031189
10 декабря, чт
чт1023:00−9˚з489596 0.5 1030224
02:00−10˚з489592 0.2 1031222
05:00−11˚з489589 0.3 1032190
08:00−11˚з479591 0.2 1033190
11:00−10˚з589496 0.4 1034300
14:00−9˚з5894100 0.4 1034386
17:00−11˚з5994100 0.6 1035260
20:00−13˚зсз4995100 0.1 1037211